Portage Southport, Manitoba

11:36 AM CST on December 18, 2017 (GMT -0600)
Portage Southport

Weather History for CYPG - September, 2013

Change the Weather History Date:

Wednesday, September 11, 2013

  Actual Average Record
Temperature  
Mean Temperature 64 °F -  
Max Temperature 72 °F 58 °F 82 °F (2002)
Min Temperature 55 °F 41 °F 35 °F (2006)
Degree Days  
Heating Degree Days 2    
Growing Degree Days 14 (Base 50)    
Moisture  
Dew Point 53 °F    
Average Humidity 67    
Maximum Humidity 94    
Minimum Humidity 38    
Precipitation  
Precipitation 0.00 in - - ()
Sea Level Pressure  
Sea Level Pressure 30.07 in    
Wind  
Wind Speed 10 mph ()    
Max Wind Speed 18 mph    
Max Gust Speed 26 mph    
Visibility 15.0 miles    
Events      
Averages and records for this station are not official NWS values.
T = Trace of Precipitation, MM = Missing Value Source: Averaged Metar Reports

Daily Weather History Graph

Daily Weather History Graph

Search for Another Location

Airport or City:

Trip Planner

Search our weather history database for the weather conditions in past years. The results will help you decide how hot, cold, wet, or windy it might be!

Date:

Astronomy

Sep. 11, 2013 Rise Set
Actual Time 7:03 AM CDT 7:54 PM CDT
Civil Twilight 6:30 AM CDT 8:27 PM CDT
Nautical Twilight 5:51 AM CDT 9:06 PM CDT
Astronomical Twilight 5:09 AM CDT 9:47 PM CDT
Moon 2:11 PM CDT (9/11) 11:13 PM CDT (9/11)
Length of Visible Light 13h 56m
Length of Day
12h 51m
Waxing Crescent, 39% of the Moon is Illuminated
Sep 11
Waxing Crescent
Sep 12
First Quarter
Sep 19
Full
Sep 26
Last Quarter
Oct 4
New

Hourly Weather History & Observations

Time (CDT) Temp. Dew Point Humidity Pressure Visibility Wind Dir Wind Speed Gust Speed Precip Events Conditions
1:00 AM 61 °F 58 °F 88% 29.91 in - West 3.5 mph - -  
6:00 AM 57.2 °F 55.4 °F 94% 29.96 in 15.0 mi SW 8.1 mph - N/A   Mostly Cloudy
7:00 AM 56 °F 54 °F 89% 29.96 in - WSW 5.8 mph - -  
7:00 AM 55.4 °F 53.6 °F 94% 29.97 in 15.0 mi SW 9.2 mph - N/A   Mostly Cloudy
8:00 AM 55.4 °F 51.8 °F 88% 29.98 in 15.0 mi SSW 9.2 mph - N/A   Scattered Clouds
9:00 AM 59.0 °F 53.6 °F 82% 29.99 in 15.0 mi West 15.0 mph 21.9 mph N/A   Partly Cloudy
10:00 AM 62.6 °F 53.6 °F 72% 30.01 in 15.0 mi WNW 16.1 mph - N/A   Partly Cloudy
11:00 AM 64.4 °F 51.8 °F 64% 30.03 in 15.0 mi NNW 16.1 mph 23.0 mph N/A   Scattered Clouds
12:00 PM 68.0 °F 51.8 °F 56% 30.05 in 15.0 mi NW 16.1 mph 26.5 mph N/A   Partly Cloudy
1:00 PM 71 °F 51 °F 38% 30.05 in - NNW 18.4 mph - -  
1:00 PM 71.6 °F 50.0 °F 46% 30.06 in 15.0 mi NNW 15.0 mph 24.2 mph N/A   Partly Cloudy
2:00 PM 71.6 °F 51.8 °F 50% 30.07 in 15.0 mi NW 13.8 mph 26.5 mph N/A   Partly Cloudy
3:00 PM 71.6 °F 51.8 °F 50% 30.09 in 15.0 mi NW 13.8 mph 23.0 mph N/A   Partly Cloudy
4:00 PM 69.8 °F 50.0 °F 49% 30.11 in 15.0 mi NNW 13.8 mph 23.0 mph N/A   Scattered Clouds
5:00 PM 69.8 °F 48.2 °F 46% 30.12 in 15.0 mi NNW 17.3 mph 26.5 mph N/A   Mostly Cloudy
6:00 PM 68.0 °F 53.6 °F 60% 30.14 in 15.0 mi NNW 11.5 mph 18.4 mph N/A   Mostly Cloudy
7:00 PM 66 °F 54 °F 56% 30.14 in - NNE 8.1 mph - -  
7:00 PM 66.2 °F 53.6 °F 64% 30.16 in 15.0 mi North 10.4 mph - N/A   Partly Cloudy
8:00 PM 62.6 °F 51.8 °F 68% 30.17 in 15.0 mi North 13.8 mph - N/A   Partly Cloudy
9:00 PM 60.8 °F 51.8 °F 72% 30.19 in 15.0 mi North 13.8 mph - N/A   Partly Cloudy
10:00 PM 60.8 °F 51.8 °F 72% 30.21 in 15.0 mi NNW 6.9 mph - N/A   Mostly Cloudy